Regional Weather Roundup
Issued by NWS State College, PA

Home | Current Version | Previous Version | Text Only | Print | Product List | Glossary On
Versions: 1 2 3 4 5 6 7 8 9 10 11 12 13 14 15 16 17 18 19 20 21 22 23 24 25 26 27 28 29 30 31 32 33 34 35 36 37 38 39 40 41 42 43 44 45 46 47 48 49 50
000
ASUS41 KCTP 300910
RWRCTP

REGIONAL WEATHER ROUNDUP
NATIONAL WEATHER SERVICE STATE COLLEGE PA
500 AM EDT SAT AUG 30 2014

Note: "fair" indicates few or no clouds below 12,000 feet with no
significant weather and/or obstructions to visibility.

* = STATION THAT DOES NOT REPORT PRECIPITATION /E.G. RAIN...SNOW...ETC/
    THUNDER OR FOG.

PAZ002>004-007>009-013>016-020>023-029>032-301000-
WESTERN PENNSYLVANIA

CITY           SKY/WX    TMP DP  RH WIND       PRES   REMARKS
ERIE           CLEAR     67  55  65 S14       30.05F
MEADVILLE      CLEAR     62  55  77 CALM      30.11S
FRANKLIN*      CLEAR     57  52  82 E6        30.14S
NEW CASTLE     FAIR      58  56  93 CALM      30.11S
BEAVER COUNTY  NOT AVBL
BUTLER*        CLEAR     57  54  88 NE3       30.13F
PITTSBURGH INT MOCLDY    62  58  86 E5        30.10S
PITTSBURGH     CLEAR     63  58  83 SE5       30.10S
INDIANA*       CLEAR     66  59  77 SE5       30.18S
LATROBE        CLEAR     61  61 100 CALM      30.13S
WASHINGTON CO* CLEAR     55  54  94 CALM      30.11S
$$

PAZ004>006-010>012-017>019-024>028-033>037-041-042-045-046-049>053-301000-
CENTRAL PENNSYLVANIA

CITY           SKY/WX    TMP DP  RH WIND       PRES   REMARKS
BRADFORD       CLEAR     58  53  84 SE7       30.16F
DUBOIS         CLEAR     59  54  83 SE6       30.16R
CLEARFIELD     CLEAR     53  52  96 NE5       30.18S
JOHNSTOWN      CLEAR     61  55  81 S7        30.19S
ALTOONA        CLEAR     60  56  86 S5        30.19F
STATE COLLEGE  PTCLDY    57  53  86 CALM      30.19S
WILLIAMSPORT   CLEAR     59  53  80 E10       30.19F
SELINSGROVE    CLEAR     54  52  93 NW3       30.21F
FT INDIANTOWN  CLOUDY    56  56 100 CALM      30.23F
CAPITAL CITY   MOCLDY    62  58  86 E5        30.22S
HARRISBURG     MOCLDY    62  57  83 E5        30.21F
YORK           MOCLDY    58  56  93 CALM      30.22S
$$

PAZ038>040-043-044-047-048-054-055-060>062-067>071-301000-
EASTERN PENNSYLVANIA

CITY           SKY/WX    TMP DP  RH WIND       PRES   REMARKS
SCRANTON       CLOUDY    63  57  81 CALM      30.23F
MOUNT POCONO   PTCLDY    57  52  83 S5        30.28S
ALLENTOWN      CLEAR     55  53  93 N3        30.26S
QUAKERTOWN*    SUNNY     54  52  94 CALM      30.26F
READING        PTCLDY    59  56  89 CALM      30.23F
LANCASTER      CLEAR     57  55  93 E3        30.23F
COATESVILLE    SUNNY     59  59 100 E6        30.25F
POTTSTOWN      CLEAR     57  55  93 E5        30.26S
BLUE BELL        N/A     54  54 100 CALM      30.25S
DOYLESTOWN     CLEAR     55  55 100 CALM      30.25S
WILLOW GROVE   NOT AVBL
NORTH PHILA    MOCLDY    58  53  84 NE3       30.27R
PHILADELPHIA   PTCLDY    62  58  86 CALM      30.25S
$$



USA.gov is the U.S. government's official web portal to all federal, state and local government web resources and services.